Theta_e
325 325 323 322 322 321 321 323 324 324 321 321 320 321 323 325 324 320 315 322 325 332 329 324 323 321 320 317 319 320 310 307 309 308 311 314 313 315 318 316 318 321 320 325 331
324 324 325 324 323 323 322 322 323 323 323 321 320 321 322 324 316 311 323 328 327 330 321 316 311 315 313 313 314 313 309 309 314 314 312 313 313 313 312 314 315 318 324 327 330
323 323 324 324 323 323 323 322 322 323 323 322 321 321 321 322 306 303 329 330 329 326 322 321 317 313 309 312 311 310 306 313 312 313 312 313 310 312 312 311 316 315 320 325 328
322 322 322 323 323 323 323 323 322 323 322 322 322 321 321 315 291 315 328 328 328 325 321 317 314 308 306 306 309 305 309 311 314 313 312 310 313 311 312 314 316 317 319 325 325
321 321 321 322 322 323 323 323 322 322 321 321 322 321 316 303 301 319 325 325 325 322 317 314 311 309 304 305 308 307 305 311 312 313 313 314 312 313 314 316 318 317 315 319 324
320 320 320 320 321 322 322 322 322 322 321 320 322 321 311 297 313 317 322 323 321 319 317 316 312 313 309 307 307 309 307 307 312 313 314 312 313 315 317 321 320 320 319 319 320
319 319 320 320 320 321 322 322 322 322 321 319 320 316 307 302 317 321 321 319 322 320 315 317 318 314 310 307 312 311 305 307 309 310 310 313 307 311 317 320 319 320 321 320 321
317 318 319 319 320 320 321 322 321 321 321 320 321 314 302 313 317 315 317 316 323 322 320 320 320 315 313 313 309 305 304 297 303 307 311 310 298 306 312 314 314 316 319 321 323
315 317 318 319 319 319 320 320 320 320 319 318 312 309 299 314 307 312 313 310 316 320 319 319 318 310 311 303 299 302 295 298 299 307 306 306 301 306 309 310 311 313 315 317 320
314 315 317 318 318 319 319 320 319 317 314 314 311 302 304 302 308 309 312 312 311 313 311 310 308 303 303 299 291 294 295 297 297 304 304 302 302 307 309 310 310 311 313 315 317
314 314 316 318 319 319 318 313 303 300 305 299 300 298 301 307 311 308 311 309 309 307 300 305 298 294 297 300 300 298 296 295 299 303 300 300 300 303 307 308 307 309 310 312 313
313 314 315 316 318 319 315 304 305 305 295 302 302 302 305 307 299 304 310 301 301 296 300 299 293 300 301 301 299 298 295 293 297 301 300 298 296 300 302 303 306 307 308 309 311
311 313 314 315 316 315 311 307 312 309 296 296 301 300 302 305 298 300 305 300 297 295 296 294 296 301 299 297 295 295 294 294 293 297 299 296 293 295 299 302 304 305 307 308 309
309 312 313 314 308 312 308 312 310 308 287 289 294 298 302 303 296 304 307 300 298 293 295 295 299 295 297 295 296 291 298 296 294 293 287 295 284 293 296 297 299 301 303 305 307
308 310 312 313 308 304 309 310 308 301 276 292 294 305 303 297 298 299 307 301 295 294 295 292 294 293 292 293 297 293 297 295 293 291 290 290 287 291 296 294 296 300 301 303 305
306 307 310 309 310 310 309 307 302 284 278 286 292 292 293 296 296 299 300 304 301 296 296 295 298 297 295 296 297 298 295 293 293 291 283 288 287 287 291 294 297 299 301 303 304
306 306 307 308 301 311 309 300 283 278 286 284 286 291 292 291 292 294 292 292 289 285 286 292 292 296 297 293 297 295 290 283 281 281 280 289 286 289 294 297 297 298 300 303 304
306 305 304 305 308 308 304 290 279 285 285 290 290 290 287 291 290 292 291 287 293 291 287 284 281 290 296 293 291 292 290 283 277 279 282 289 283 288 297 299 300 301 301 304 304
305 302 299 303 306 306 295 281 283 287 291 288 288 285 285 288 290 289 289 288 291 292 284 284 283 293 294 295 294 290 287 292 285 284 281 285 289 294 297 297 299 300 301 302 302
299 297 296 304 305 300 288 285 287 293 292 291 284 286 282 285 286 287 288 292 291 294 295 289 283 290 292 295 295 292 294 285 287 277 276 282 284 286 292 294 297 297 298 300 301
296 288 297 304 302 290 281 285 287 295 294 289 288 285 286 285 288 287 288 291 293 292 295 291 287 285 291 288 288 288 287 289 288 285 279 278 282 293 293 295 295 297 298 300 300
293 283 299 302 285 285 283 285 289 291 294 292 293 290 288 288 286 287 287 290 295 295 289 292 288 282 285 292 294 292 289 289 283 281 284 283 283 295 296 296 297 297 297 299 300
285 287 301 298 280 282 285 285 288 288 291 290 289 292 292 289 285 288 290 295 295 294 290 292 286 281 282 287 290 288 291 291 290 289 283 281 283 295 296 296 296 296 298 299 300
286 282 287 291 289 285 283 284 283 290 288 292 291 292 291 288 291 288 289 293 294 295 296 295 288 284 280 283 287 284 288 291 290 283 284 285 286 291 293 294 295 297 298 299 300
285 284 286 280 283 284 285 286 283 283 288 289 288 290 289 286 287 287 290 290 292 296 295 292 284 286 287 288 287 287 286 287 287 288 284 286 287 290 293 294 295 297 298 299 300
285 285 287 287 287 284 284 282 284 285 286 284 284 289 290 287 288 286 290 288 288 294 292 293 285 287 284 288 288 285 286 287 288 288 288 288 288 294 295 296 296 297 298 298 297
292 293 291 286 285 283 283 283 284 289 289 290 289 288 288 291 294 295 295 293 292 291 290 289 286 283 279 284 284 280 284 286 287 289 288 284 289 294 294 295 296 297 297 296 297
Wind_Speed
16 15 15 14 12 12 11 8 8 8 4 2 2 5 6 7 12 8 6 6 6 8 11 8 7 3 5 4 4 3 6 9 10 6 4 6 7 2 2 7 5 4 3 5 15
16 16 16 15 12 12 11 10 8 7 6 4 3 5 8 9 10 10 6 8 8 7 7 6 6 4 6 7 4 8 10 12 3 5 5 6 7 6 6 7 8 7 6 6 14
18 17 17 17 15 13 12 11 9 8 6 5 4 4 6 9 8 1 9 8 7 7 5 5 4 6 9 5 9 8 16 10 3 4 5 4 6 2 7 6 9 4 13 11 13
19 18 18 17 17 15 13 12 10 9 8 6 5 4 5 7 5 2 8 9 3 7 6 3 4 5 7 10 11 10 14 11 2 1 4 7 4 7 10 9 7 6 4 11 13
16 19 19 18 18 17 15 13 11 10 8 6 7 5 5 6 5 3 5 3 2 4 8 7 8 8 8 7 9 13 16 6 12 6 6 4 11 10 13 12 10 4 3 7 11
11 15 19 19 18 17 17 15 13 11 9 8 7 5 7 10 3 1 1 2 1 5 6 7 3 4 7 6 10 2 14 13 8 12 8 9 15 11 12 16 16 15 12 11 12
13 12 16 20 20 19 17 15 14 12 11 10 9 7 11 10 2 2 3 1 1 2 4 4 2 7 2 5 3 4 9 12 13 15 14 13 20 21 22 17 15 14 13 12 12
14 13 13 18 20 20 18 16 15 13 10 10 8 9 10 3 5 2 2 4 3 2 2 2 2 4 6 3 3 6 10 12 11 16 10 9 18 17 20 20 23 21 18 18 17
15 14 15 16 21 21 19 17 15 12 10 7 7 8 6 4 8 13 8 4 5 5 2 2 3 6 7 9 8 8 11 17 14 6 9 13 12 14 17 8 14 16 16 15 15
16 16 17 17 20 22 21 18 15 9 8 6 4 6 8 7 6 5 13 6 5 8 6 6 7 8 9 11 9 11 15 15 16 8 9 17 19 16 17 15 14 14 14 13 13
17 18 19 17 18 23 18 8 6 4 15 8 11 7 2 8 3 6 8 10 6 12 11 14 11 13 17 17 16 4 11 14 13 10 8 15 21 20 19 20 18 18 18 18 18
18 18 19 19 17 21 16 10 20 7 6 19 5 21 3 9 5 7 11 13 13 15 15 10 18 16 13 14 16 16 14 14 12 8 11 19 24 22 21 22 23 23 23 22 22
18 18 19 19 18 14 18 23 13 14 5 13 18 15 12 11 8 15 17 13 14 16 20 18 1 18 16 12 14 17 18 15 15 14 16 22 26 25 23 26 26 25 26 24 23
17 18 19 18 12 13 19 16 9 3 4 8 17 10 16 8 9 13 20 13 11 19 17 16 15 10 18 18 16 17 15 14 13 9 8 4 11 17 17 14 15 14 15 17 16
14 17 19 23 9 18 6 12 8 5 13 19 14 10 19 20 14 13 19 17 14 10 17 10 14 15 16 18 16 13 3 8 10 12 15 16 13 6 11 14 15 13 14 14 11
19 15 19 12 12 14 16 18 5 9 9 9 10 19 20 20 12 13 16 13 8 14 17 16 0 14 18 12 14 5 7 3 4 6 10 15 16 11 15 15 12 7 7 7 6
20 15 15 11 14 10 18 9 11 13 6 7 7 19 25 17 18 15 21 23 14 11 17 12 12 3 7 13 14 14 13 4 5 6 11 6 14 16 5 6 3 6 6 3 4
23 20 12 8 9 17 11 11 19 10 10 9 10 18 22 18 17 22 21 22 25 18 12 14 12 19 15 19 11 23 18 6 8 10 8 11 14 7 4 6 5 9 9 3 7
24 11 11 9 8 14 11 21 16 8 23 15 17 19 10 12 11 19 24 24 24 26 14 15 14 22 18 15 16 16 23 16 9 3 5 10 16 15 14 11 4 7 8 7 6
11 12 14 14 10 9 16 20 12 16 16 21 22 14 17 20 15 20 22 19 26 28 21 8 6 8 17 18 19 15 10 12 10 7 10 12 19 14 1 3 9 8 8 6 8
11 7 9 17 10 9 8 19 5 20 18 22 19 13 17 16 21 23 21 12 30 27 22 11 10 4 13 15 19 14 14 13 13 13 7 12 15 9 3 6 3 2 6 10 12
7 8 10 16 14 2 13 6 6 18 18 17 15 16 24 26 22 26 24 18 24 21 33 22 6 8 15 8 19 21 19 23 10 10 14 17 28 4 3 11 11 11 9 12 14
4 3 8 16 14 8 6 4 3 4 28 20 13 19 20 27 20 20 23 18 10 24 24 21 10 9 5 10 10 15 23 20 21 15 21 15 22 4 9 11 16 15 13 15 16
4 6 5 10 12 11 11 9 11 7 5 18 16 17 21 22 22 25 23 12 11 23 18 22 8 18 15 8 13 19 22 24 21 14 23 19 34 26 25 21 19 19 17 17 16
5 5 6 10 9 18 10 12 18 16 9 11 13 25 23 16 28 18 23 14 12 22 16 16 14 19 19 10 9 12 22 22 26 28 23 26 26 34 26 21 19 21 18 19 18
3 3 1 5 4 17 15 12 19 19 14 17 7 23 24 20 26 22 24 17 16 21 21 17 8 16 16 18 19 12 16 23 26 27 26 29 28 30 29 24 24 20 19 18 16
6 2 4 6 9 10 19 24 19 10 13 21 26 17 20 22 20 19 22 20 11 27 29 18 9 7 9 16 13 13 34 23 25 25 23 25 33 27 25 24 21 17 16 18 19
Wind_Direction
221 217 218 221 218 227 221 218 215 205 206 213 324 341 344 333 301 282 281 10 337 342 309 293 287 300 252 231 263 273 254 248 243 232 240 141 199 153 2 258 205 165 2 81 130
219 216 214 218 216 218 223 217 216 212 200 220 268 308 329 328 295 269 28 339 309 332 305 308 272 289 225 236 218 234 243 254 318 268 274 173 222 158 225 219 223 193 127 138 152
218 212 213 214 214 217 216 217 211 207 208 218 241 278 306 307 289 221 16 329 267 264 284 304 282 256 247 243 215 220 247 258 179 268 283 244 222 223 235 233 256 235 183 175 179
222 214 212 212 211 208 215 214 211 209 207 210 227 262 286 255 253 75 347 353 172 235 238 249 228 211 233 216 227 253 246 267 275 249 267 242 296 247 240 250 55 19 6 176 197
227 220 211 209 210 206 207 212 208 198 196 206 222 226 232 223 250 111 320 7 132 192 212 219 221 226 227 228 223 241 259 230 256 237 255 291 255 265 266 247 263 237 216 216 217
235 225 217 209 207 205 206 205 206 194 193 204 223 210 239 240 53 270 280 303 137 192 197 212 255 244 282 238 226 346 250 250 237 250 238 252 259 253 249 235 248 255 241 239 242
238 230 223 213 206 204 203 203 201 199 191 203 218 213 238 239 34 204 213 200 166 256 194 212 266 221 217 225 237 246 255 242 246 244 247 266 259 243 256 269 254 251 243 230 238
243 232 226 221 208 202 200 200 199 196 190 203 206 211 245 23 211 256 228 199 196 184 271 186 236 239 262 66 183 233 237 249 235 213 216 221 257 248 255 240 252 254 246 257 238
245 235 229 223 214 201 199 197 193 189 188 194 189 222 239 100 211 231 224 232 188 173 141 174 197 211 187 213 230 218 247 228 245 198 245 225 265 249 257 279 271 255 260 250 245
235 233 229 222 217 199 194 190 190 172 182 181 245 202 198 211 195 220 210 216 189 170 165 204 202 203 212 208 211 235 232 257 254 181 230 250 254 260 273 272 261 263 265 261 255
227 232 227 221 217 200 183 168 171 189 192 188 185 201 325 127 130 196 181 196 201 201 197 195 202 207 207 217 242 288 291 257 250 252 293 261 264 264 260 261 264 258 258 257 252
229 227 226 222 213 204 190 194 196 127 170 234 253 216 118 173 143 174 186 189 195 200 202 187 228 220 217 224 237 248 257 257 260 272 267 280 276 275 266 257 254 254 253 250 250
234 225 224 220 212 203 209 197 173 171 193 214 217 220 168 187 203 182 180 196 203 206 206 207 179 210 214 213 221 233 238 250 264 282 284 281 282 265 252 237 247 249 252 254 257
245 227 219 210 208 200 217 195 168 174 233 197 198 224 184 198 229 182 193 181 204 218 206 231 227 211 207 222 210 232 225 247 264 283 264 115 291 287 284 241 232 244 250 250 253
232 242 219 199 200 195 181 130 114 71 229 172 173 183 176 188 129 187 189 209 218 202 195 209 205 190 212 222 225 248 248 229 261 265 280 268 271 253 234 247 248 250 248 251 253
213 245 228 217 227 208 132 130 139 198 212 167 143 178 171 197 185 143 179 203 230 215 215 225 353 218 221 220 217 174 164 186 248 263 257 234 236 257 245 241 241 258 223 227 239
208 220 239 205 210 167 138 158 212 221 138 148 163 175 179 177 184 176 178 192 180 184 211 223 201 223 221 193 198 190 174 176 216 209 250 229 217 247 302 308 229 261 211 223 303
202 198 238 216 208 154 162 198 217 171 171 168 170 177 192 159 194 183 183 196 210 212 173 193 211 203 195 195 185 201 191 204 226 224 261 179 237 251 178 307 277 229 260 312 296
207 204 218 210 202 178 200 210 223 168 185 168 158 174 177 181 154 184 199 203 201 202 212 201 231 184 180 202 183 197 220 225 289 220 275 246 253 247 241 207 234 262 277 290 255
205 197 206 196 205 228 212 216 215 205 177 177 184 184 179 172 172 188 191 206 209 209 218 182 201 189 194 210 220 236 190 204 219 234 242 247 261 248 153 215 189 228 269 321 314
203 204 192 188 191 215 220 221 228 197 177 177 197 169 193 178 193 191 195 199 197 202 210 217 232 135 171 210 202 204 220 218 218 224 255 274 257 266 251 74 103 61 276 299 320
194 194 178 167 207 190 214 164 134 212 205 201 203 178 187 187 198 199 208 210 195 188 195 199 212 193 209 220 225 218 215 211 214 207 228 256 267 238 310 314 298 286 297 310 293
216 130 171 177 209 194 140 160 218 227 194 193 210 185 192 188 199 199 211 200 192 188 182 180 213 192 197 215 220 232 223 223 230 252 243 228 261 206 256 293 299 294 304 293 293
168 188 199 200 208 212 221 190 200 208 256 204 194 195 197 192 203 193 214 187 200 191 178 167 180 210 211 209 182 206 221 225 224 225 246 245 270 272 276 283 291 292 294 296 314
168 212 130 189 170 206 222 184 193 209 219 224 225 201 188 192 195 194 195 169 197 186 176 181 219 209 235 209 195 204 218 219 225 237 234 252 253 268 274 282 287 292 300 303 303
204 154 330 159 180 206 206 213 198 191 182 214 234 209 195 202 191 186 183 173 178 183 188 199 222 220 227 243 251 244 234 230 229 238 240 253 258 266 276 281 281 285 295 299 313
219 30 236 184 169 199 214 226 221 186 209 220 201 201 224 213 200 201 187 184 186 184 189 187 182 164 221 216 232 250 238 231 240 237 234 238 245 256 270 268 268 285 301 312 302